Volver al catálogo

WESTPAC

ActivoComunicacionesSSO
NORAD 25398·PAYLOAD·🇦🇺 Australia

Lanzado Jul 10, 1998 desde Baikonur Cosmodrome

Loading…

Próximos Pases (próximas 24 horas)

TLE

ActualizadoSource: CelesTrak SupGP

Época: Sep 13, 2026, 00:00 UTC

1 25398C 98043E   26256.00000000  .00000075  00000+0  33309-4 0  2561
2 25398  99.0239 244.1654 0000900  11.4933 270.2092 14.23057127    12

Sigue WESTPAC en tiempo real con AllMySat

Download on the App Store